Preview of NWS' New Version of Forecast
This preview is not operational and should not be used for support decisions.
Latest weather observations around

Alabaster, Shelby County Airport (KEET)

Using International System of Units (Switch to English Units)
Date/ Time (CDT) Wind (kph) Vis. (km) Weather Sky Cond. Temp (°C) Rel. Humidity Wind Chill (°C) Heat Index (°C) Pressure Precip. (cm)
Air Dwpt 6 hour Altimeter (hPa) Sea level (hPa) 1 hr 3 hr 6 hr
Max Min
Oct 15 10:11 SSE 9 16.09 Mostly Cloudy BKN015 22 19     84%   22 1020.7        
Oct 15 09:53 SE 8 16.09 Mostly Cloudy BKN012 BKN023 21 18     81%     1020.7 1019.9      
Oct 15 08:53 SE 8 16.09 Cloudy BKN020 OVC033 19 16     81%     1020.3 1019.7      
Oct 15 08:25 E 5 16.09 Mostly Cloudy FEW008 BKN020 19 16     81%     1020.3        
Oct 15 08:14 5 16.09 Partly Cloudy SCT008 19 16     81%     1020.3        
Oct 15 07:53 SE 8 16.09 Partly Cloudy SCT033 19 16     81%     1019.7 1019.1      
Oct 15 06:53 Calm 16.09 Clear CLR 18 16     87%     1019.7 1018.9      
Oct 15 05:53 Calm 16.09 Clear CLR 18 16     84%     1019 1018.2      
Oct 15 04:53 Calm 16.09 Clear CLR 18 16     87%     1018.6 1017.8      
Oct 15 03:53 Calm 16.09 Clear CLR 17 16     90%     1018.3 1017.5      
Oct 15 02:53 Calm 16.09 Clear CLR 18 16     90%     1018.3 1017.4      
Oct 15 01:53 Calm 16.09 Clear CLR 18 16     87%     1018.6 1017.7      
Oct 15 00:53 Calm 16.09 Clear CLR 19 16     84%     1018.3 1017.6      
Oct 14 23:53 Calm 16.09 Clear   20 16     78%     1018.3 1017.6      
Oct 14 22:53 Calm 16.09 Partly Cloudy SCT110 21 16     73%     1018.6 1017.9      
Oct 14 21:53 Calm 16.09 Clear CLR 21 16     75%     1018.6 1018      
Oct 14 20:53 Calm 16.09 Clear CLR 21 17     76%     1018 1017.6      
Oct 14 19:53 SE 5 16.09 Mostly Cloudy BKN120 23 16     64%   23 1017.3 1016.8      
Oct 14 18:53 SE 5 16.09 Mostly Cloudy BKN120 25 16     58%   25 1016.9 1016.4      
Oct 14 17:53 S 9 16.09 Mostly Cloudy BKN120 26 15     50%   26 1016.3 1015.7      
Oct 14 16:53 S 13 16.09 Clear CLR 28 14     41%   28 1015.9 1015.4      
Oct 14 15:53 11 16.09 Clear CLR 29 13     36%   29 1016.3 1015.5      
Oct 14 14:53 S 11 16.09 Mostly Cloudy BKN120 29 13     38%   28 1016.3 1015.5      
Oct 14 13:53 S 13 16.09 Clear CLR 28 14     41%   28 1016.6 1015.8      
Oct 14 12:53 SSE 17 16.09 Clear CLR 28 14     43%   28 1016.9 1016.2      
Oct 14 11:53 S 8 16.09 Clear CLR 26 14     49%   26 1018 1017.3      
Oct 14 10:53 S 13 16.09 Clear CLR 25 14     52%   25 1018.3 1017.8      
Oct 14 09:53 SE 9 16.09 Partly Cloudy SCT110 23 14     59%   23 1018.6 1018      
Oct 14 08:53 ESE 5 16.09 Mostly Clear FEW110 20 15     73%     1018 1017.4      
Oct 14 07:53 SSE 9 16.09 Cloudy OVC110 17 15     87%     1017.3 1016.9      
Oct 14 06:53 Calm 16.09 Mostly Cloudy BKN100 16 14     93%     1017.3 1016.7      
Oct 14 05:53 Calm 16.09 Clear CLR 16 14     90%     1016.9 1016.3      
Oct 14 04:53 Calm 16.09 Clear CLR 17 14     86%     1016.3 1015.7      
Oct 14 03:53 Calm 16.09 Clear CLR 17 14     86%     1015.9 1015.3      
Oct 14 02:53 ESE 8 16.09 Mostly Clear FEW110 17 14     86%     1015.2 1014.8      
Oct 14 01:53 Calm 16.09 Clear CLR 17 14     81%     1015.6 1015      
Oct 14 00:53 Calm 16.09 Mostly Cloudy BKN080 18 14     81%     1015.6 1015      
Oct 13 23:53 Calm 16.09 Clear CLR 18 14     78%     1015.9 1015.4      
Oct 13 22:53 Calm 16.09 Clear CLR 18 14     78%     1015.6 1014.9      
Oct 13 21:53 Calm 16.09 Clear CLR 18 15     84%     1015.9 1015.4      
Oct 13 20:53 Calm 16.09 Clear CLR 18 15     84%     1015.6 1015.2      
Oct 13 19:53 Calm 16.09 Clear CLR 19 16     84%     1015.2 1014.8      
Oct 13 18:53 Calm 16.09 Clear CLR 20 15     73%     1014.6 1014      
Oct 13 17:53 Calm 16.09 Clear CLR 23 13     55%   23 1013.9 1013.3      
Oct 13 16:53 Calm 16.09 Clear CLR 24 13     50%   24 1013.6 1013.1      
Oct 13 15:53 8 16.09 Mostly Clear FEW047 24 13     52%   24 1014.2 1013.6      
Oct 13 14:53 NE 8 16.09 Mostly Clear FEW046 24 13     50%   24 1014.2 1013.6      
Oct 13 13:53 N 8 16.09 Mostly Clear FEW048 23 12     51%   22 1014.9 1014.2      
Oct 13 12:53 Calm 16.09 Clear CLR 22 11     51%   21 1015.6 1015.1      
Oct 13 11:53 Calm 16.09 Clear CLR 22 12     53%   21 1016.3 1015.7      
Oct 13 10:53 Calm 16.09 Clear CLR 20 10     53%     1016.6 1016.2      
Oct 13 09:53 8 16.09 Clear CLR 19 9     54%     1016.6 1016.1      
Oct 13 08:53 5 16.09 Partly Cloudy SCT050 18 11     63%     1016.3 1015.8      
Oct 13 04:53 Calm 16.09 Clear CLR 13 11     89%     1014.6 1014.1      
Oct 12 23:53 Calm 16.09 Cloudy OVC080 16 10     67%     1014.2 1013.6      
Oct 12 18:53 Calm 16.09 Clear CLR 18 11     63%     1013.2 1012.9      
Oct 12 07:53 N 11 16.09 Clear CLR 12 8     74%     1016.3 1015.9      
Oct 12 06:53 5 16.09 Clear CLR 11 8     80%     1015.9 1015.6      
Oct 11 16:53 NNW 17 16.09 Clear CLR 25 11     42%   25 1012.2 1011.5      
Oct 11 15:53   16.09 Clear CLR 25 13     48%   25 1012.2 1011.4      
Oct 11 11:28 NNW 17 16.09 Partly Cloudy SCT027 23 15     61%   23 1013.2        
Oct 11 09:53 NW 15 16.09 Cloudy OVC023 21 16     75%     1012.9 1012.1      
Oct 11 07:53 NW 22 16.09 Cloudy OVC016 21 18     84%     1010.8 1010.3      
Oct 11 02:27 NW 13 12.87 Light Rain OVC010 23 22     94%   24 1006.4   0    
Oct 11 00:25 NW 15 14.48 Cloudy OVC010 23 22     96%   24 1006.4        
Oct 10 17:53 N 13 11.27 Mostly Cloudy SCT038 BKN075 24 23     94%   25 1005.4 1004.5 0    
Oct 10 12:18 8 16.09 Light Rain SCT019 BKN070 OVC095 24 23     91%   25 1009.2   0    
Oct 10 08:53 E 13 16.09 Partly Cloudy SCT015 24 22     90%   25 1010.2 1009.4      
Notice The following observation data may not be complete
Oct 10 07:53   16.09 Cloudy BKN016 OVC032          %              
Oct 10 06:02 5 16.09 Mostly Cloudy BKN017 23 22     91%   24 1010.2        
Notice The following observation data may not be complete
Oct 10 05:36   16.09 Partly Cloudy SCT014          %              
Oct 10 00:53 9 16.09 Cloudy OVC016 23 22     94%   24 1011.5 1010.8 0   0
Oct 09 23:53 E 8 6.44 Clear   23 22     94%   24 1011.9 1011.1 0    
Oct 09 21:28 E 13 16.09 Cloudy BKN022 OVC034 24 21     79%   25 1011.9        
Oct 09 19:53 8 16.09 Cloudy BKN048 OVC055 25 21     77%   26 1012.2 1011.3      
Oct 09 16:53 E 15 16.09 Partly Cloudy FEW060 SCT095 SCT120 27 20     65%   29 1012.9 1012.1      
Oct 09 11:53 ESE 18 16.09 Cloudy SCT029 OVC045 27 21     69%   28 1016.6 1015.8      
Oct 09 04:27 E 5 16.09 Mostly Cloudy BKN020 23 21     85%   24 1016.9        
Oct 09 03:53 8 16.09 Clear CLR 23 21     85%   24 1016.9 1016.1      
Oct 08 22:53 8 16.09 Clear CLR 26 19     69%   26 1018 1017      
Oct 08 16:53 8 16.09 Mostly Cloudy BKN085 29 18     53%   30 1017.3 1016.6      
Oct 08 12:53 SE 15 16.09 Partly Cloudy FEW042 SCT055 29 20     59%   31 1019.7 1018.8      
Oct 08 11:53 ESE 15 16.09 Partly Cloudy SCT032 SCT041 28 21     63%   30 1020.3 1019.5      
Oct 08 06:53 ENE 5 16.09 Clear CLR 21 19     87%     1020 1019.3      
Oct 08 04:53 Calm 16.09 Clear CLR 21 19     87%     1019.3 1018.5      
Oct 07 16:53 SE 9 16.09 Clear CLR 30 18     50%   31 1018.6 1017.9      
Oct 07 12:53 11 16.09 Partly Cloudy SCT045 31 20     53%   33 1020.7 1019.8      
Oct 07 09:53 E 8 16.09 Mostly Cloudy BKN065 26 19     69%   26 1022.4 1021.5      
Oct 07 04:53 Calm 9.66 Clear   21 21     97%     1019.7 1018.8      
Oct 06 14:53 8 16.09 Mostly Cloudy BKN050 31 19     51%   32 1018.6 1017.7      
Oct 06 13:53 ESE 8 16.09 Clear CLR 31 20     52%   33 1019 1018.1      
Oct 06 12:53 Calm 16.09 Partly Cloudy FEW060 SCT080 31 20     53%   33 1019.7 1018.9      
Oct 06 04:53 Calm 9.66 Fog/Mist BKN070 22 21     93%   22 1018.6 1017.6      
Oct 06 03:53 Calm 9.66 Fog/Mist BKN065 22 21     93%   22 1018.3 1017.3      
Oct 05 22:53 Calm 12.87 Clear CLR 23 22     91%   24 1018.6 1017.9      
Oct 05 20:53 Calm 16.09 Clear CLR 24 22     88%   25 1018.6 1017.9      
Oct 05 19:53 Calm 16.09 Clear CLR 25 22     82%   26 1018.3 1017.4      
Oct 05 16:53 ENE 5 11.27 Clear CLR 31 21     54%   34 1017.3 1016.3      
Oct 05 13:53 Calm 16.09 Mostly Cloudy SCT049 BKN070 31 19     51%   32 1018 1017      
Oct 05 07:53 Calm 11.27 Clear CLR 23 21     87%   23 1020.3 1019.7      
Oct 05 06:53 Calm 8.05 Fog/Mist CLR 21 20     96%     1020.3 1019.5      
Oct 05 05:53 Calm 9.66 Fog/Mist CLR 21 20     93%     1019.7 1019      
Oct 05 04:53 Calm 8.05 Fog/Mist CLR 21 21     97%     1019.3 1018.4      
Oct 05 03:53 Calm 11.27 Clear CLR 21 21     97%     1018.6 1018      
Oct 05 02:53 Calm 11.27 Clear CLR 21 21     97%     1018.6 1017.8      
Oct 05 01:53 Calm 9.66 Fog/Mist CLR 22 21     96%   22 1018.6 1017.7      
Oct 05 00:53 Calm 11.27 Clear CLR 22 21     93%   23 1018.3 1017.5      
Oct 04 23:53 Calm 12.87 Clear CLR 22 21     93%   23 1018.6 1017.7      
Oct 04 22:53 Calm 14.48 Clear CLR 24 22     88%   25 1019 1018.2      
Oct 04 21:53 Calm 14.48 Clear CLR 23 22     94%   24 1019 1018.2      
Oct 04 20:53 Calm 16.09 Clear CLR 24 22     88%   25 1018.6 1017.8      
Oct 04 19:53 Calm 16.09 Clear CLR 24 22     90%   25 1018.3 1017.5      
Oct 04 18:53 Calm 16.09 Clear CLR 26 22     79%   26 1018 1017.1      
Oct 04 17:53 Calm 16.09 Clear CLR 29 20     59%   31 1018 1017.2      
Oct 04 16:53 Calm 16.09 Clear CLR 31 19     50%   32 1018 1017.2      
Oct 04 15:53 Calm 16.09 Mostly Cloudy BKN048 30 19     53%   32 1018.3 1017.6      
Oct 04 14:53 Calm 16.09 Mostly Clear FEW080 31 20     52%   33 1019 1018      
Oct 04 13:53 ESE 5 16.09 Mostly Cloudy SCT049 BKN085 30 19     51%   31 1019.3 1018.7      
Oct 04 12:53 WSW 8 16.09 Mostly Cloudy FEW044 BKN055 29 20     57%   31 1020.3 1019.5      
Oct 04 11:53 9 16.09 Mostly Clear FEW041 30 21     57%   32 1021 1020.1      
Oct 04 10:53 5 16.09 Mostly Clear FEW031 29 21     63%   31 1021.3 1020.7      
Oct 04 09:53 Calm 16.09 Clear CLR 27 21     71%   28 1022 1021.1      
Oct 04 08:53 Calm 12.87 Clear CLR 24 21     82%   25 1021.7 1021      
Oct 04 07:53 Calm 14.48 Clear CLR 22 20     87%   23 1021 1020.4      
Oct 04 06:53 Calm 12.87 Clear CLR 21 19     93%     1020.7 1019.9      
Oct 04 05:53 Calm 14.48 Clear CLR 20 19     96%     1020 1019.4      
Oct 04 04:53 Calm 12.87 Clear CLR 21 20     96%     1019.7 1018.9      
Oct 04 03:53 Calm 12.87 Clear CLR 21 20     96%     1019 1018.3      
Oct 04 02:53 Calm 12.87 Clear CLR 21 20     93%     1018.6 1018      
Oct 04 01:53 Calm 14.48 Clear CLR 21 20     93%     1019 1018.1      
Oct 04 00:53 Calm 16.09 Clear CLR 21 21     97%     1019 1018.2      
Oct 03 23:53 Calm 16.09 Clear CLR 22 21     91%   23 1019 1018.3      
Oct 03 22:53 Calm 14.48 Clear CLR 22 21     93%   23 1019.3 1018.5      
Oct 03 21:53 Calm 16.09 Clear CLR 23 21     90%   23 1019.3 1018.6      
Oct 03 20:53 Calm 16.09 Clear   23 22     91%   24 1019 1018.3      
Sep 25 09:41 SSE 8 16.09 Cloudy BKN013 BKN030 OVC044 26 23     82%   28 1020.3        
Notice The following observation data may not be complete
Sep 25 09:32   16.09 Mostly Cloudy SCT013 BKN030 BKN044          %              
Sep 25 09:23 SSE 11 16.09 Mostly Cloudy FEW009 SCT015 BKN029 26 22     82%   26 1020.3        
May 15 03:53 Calm 14.48 Clear CLR 22 19     87%   22 1015.2 1014.4      
May 14 10:53 9 16.09 Clear CLR 32 18     44%   32 1017.6 1016.8      
May 14 04:53 Calm 11.27 Clear   19 18     93%     1016.6 1015.8      
May 13 22:53 Calm 12.87 Clear CLR 23 20     84%   23 1018 1017.1      
May 13 08:53 Calm 14.48 Clear CLR 27 17     54%   27 1021.3 1020.6      
May 12 02:53 Calm 12.87 Clear CLR 18 17     90%     1019 1018.4      
May 11 16:53 WSW 8 16.09 Clear CLR 31 13     35%   30 1018 1017.1      
Jun 12 05:53 Calm 16.09 Mostly Clear FEW023 22 22     97%   23 1020.7 1020      
Jun 11 18:53 SSE 8 16.09 Clear CLR 30 21     57%   32 1018.6 1017.7      
Jun 11 11:53 SE 9 16.09 Clear CLR 29 19     53%   31 1021 1020.3      
Jun 11 10:53 ESE 11 16.09 Mostly Clear FEW031 28 22     67%   31 1021.3 1020.5      
Jun 11 01:53 Calm 16.09 Clear   22 18     81%   22 1018.6 1017.9      
Jun 10 03:53 Calm 16.09 Mostly Cloudy BKN060 BKN075 19 18     96%     1016.3 1015.4      
Jun 09 21:53 Calm 16.09 Clear CLR 21 19     87%     1015.2 1014.7      
Jun 08 19:53 Calm 16.09 Clear CLR 22 18     76%   22 1011.5 1010.9      
Jun 07 07:53 N 9 16.09 Clear CLR 21 16     71%     1009.8 1009.2      
Jun 06 08:20 NNW 8 4.83 Light Rain and Fog/Mist SCT006 OVC017 22 22     100%   23 1009.5   1    
Jun 06 07:28 Calm 8.05 Light Rain and Fog/Mist BKN013 BKN017 OVC043 22 22     100%   23 1009.5   0    
Jun 06 06:10 NW 9 2.82 Rain and Fog/Mist BKN013 BKN020 OVC024 21 21     100%     1009.5   1    
Jun 06 05:05 Calm 4.83 Rain and Fog/Mist FEW031 BKN042 OVC070 22 22     100%   23 1008.8   0    
Jun 05 21:53 Calm 16.09 Clear   22 22     100%   23 1010.2 1009.2   0